Location: Jodlow
(50.1500°N, 16.7500°E)
Time: 19:31:14
(UTC+01:00)

ISS - Visible Passes

Search period start: 24 March 2023 00:00
Search period end: 03 April 2023 01:00
Orbit: 414 x 422 km, 51.6° (Epoch: 24 March)

Date Brightness Start Highest point End Pass type
(mag) Time Alt. Az. Time Alt. Az. Time Alt. Az.
24 Mar -3.6 18:42:38 10° W 18:45:59 74° N 18:49:20 10° ENE visible
24 Mar -3.7 20:19:34 10° WNW 20:22:45 73° NNW 20:22:45 73° NNW visible
25 Mar -3.6 19:31:38 10° WNW 19:34:59 68° N 19:36:46 25° E visible
25 Mar -1.3 21:08:29 10° WNW 21:09:42 20° W 21:09:42 20° W visible
26 Mar -3.5 19:43:39 10° W 19:47:00 65° N 19:50:20 10° E visible
26 Mar -3.7 21:20:31 10° WNW 21:23:41 71° SW 21:23:41 71° SW visible
27 Mar -3.8 20:32:32 10° WNW 20:35:53 88° N 20:37:39 26° ESE visible
27 Mar -1.1 22:09:31 10° W 22:10:34 17° W 22:10:34 17° W visible
28 Mar -2.9 21:21:23 10° W 21:24:31 39° SSW 21:24:31 39° SSW visible
29 Mar -3.4 20:33:16 10° WNW 20:36:34 55° SSW 20:38:27 22° SE visible
29 Mar -0.8 22:11:08 10° WSW 22:11:23 11° WSW 22:11:23 11° WSW visible
30 Mar -1.8 21:22:25 10° W 21:24:54 19° SW 21:25:20 19° SSW visible
31 Mar -2.2 20:34:02 10° W 20:36:58 28° SW 20:39:19 13° SSE visible
02 Apr -1.1 20:35:17 10° WSW 20:37:02 14° SW 20:38:47 10° S visible
